Indianapolis, IN

4:14 PM EST on November 16, 2019 (GMT -0500)
Indianapolis Terry

Weather History for KTYQ - October, 2019

Change the Weather History Date:

Sunday, October 13, 2019

  Actual Average (KEYE) Record (KEYE)
Temperature  
Mean Temperature 50 °F -  
Max Temperature 63 °F 62 °F 78 °F (2008)
Min Temperature 37 °F 43 °F 32 °F (2006)
Degree Days  
Heating Degree Days 15    
Moisture  
Dew Point 36 °F    
Average Humidity 63    
Maximum Humidity 94    
Minimum Humidity 37    
Precipitation  
Precipitation 0.00 in - - ()
Sea Level Pressure  
Sea Level Pressure 29.94 in    
Wind  
Wind Speed 10 mph ()    
Max Wind Speed 17 mph    
Max Gust Speed 24 mph    
Visibility 10.0 miles    
Events      
Averages and records for this station are not official NWS values.
T = Trace of Precipitation, MM = Missing Value Source: Averaged Metar Reports

Daily Weather History Graph

Daily Weather History Graph

Search for Another Location

Airport or City:

Astronomy

Oct. 13, 2019 Rise Set
Actual Time 7:53 AM EDT 7:08 PM EDT
Civil Twilight 7:25 AM EDT 7:35 PM EDT
Nautical Twilight 6:54 AM EDT 8:07 PM EDT
Astronomical Twilight 6:23 AM EDT 8:38 PM EDT
Moon 7:30 PM EDT (10/13) 7:26 AM EDT (10/13)
Length of Visible Light 12h 09m
Length of Day
11h 15m
Full, 100% of the Moon is Illuminated
Oct 13
Full
Oct 13
Full
Oct 21
Last Quarter
Oct 27
New
Nov 4
First Quarter

Hourly Weather History & Observations

Time (EDT) Temp. Windchill Dew Point Humidity Pressure Visibility Wind Dir Wind Speed Gust Speed Precip Events Conditions
12:15 AM 43.5 °F 37.1 °F 32.2 °F 64% 30.01 in 10.0 mi SSW 12.7 mph 18.4 mph N/A   Clear
12:35 AM 43.2 °F 37.0 °F 32.2 °F 65% 30.01 in 10.0 mi SSW 11.5 mph - N/A   Clear
12:55 AM 41.7 °F 36.1 °F 32.9 °F 71% 30.00 in 10.0 mi South 9.2 mph - N/A   Clear
1:15 AM 41.4 °F 35.2 °F 32.9 °F 72% 30.00 in 10.0 mi SSW 10.4 mph - N/A   Clear
1:35 AM 41.2 °F 35.5 °F 32.9 °F 72% 29.99 in 10.0 mi South 9.2 mph - N/A   Clear
1:55 AM 41.0 °F 34.3 °F 33.3 °F 74% 29.99 in 10.0 mi South 11.5 mph - N/A   Clear
2:15 AM 41.2 °F 34.1 °F 32.9 °F 72% 29.99 in 10.0 mi SSW 12.7 mph - N/A   Clear
2:35 AM 42.3 °F 35.9 °F 32.2 °F 67% 29.99 in 10.0 mi SSW 11.5 mph - N/A   Clear
2:55 AM 41.5 °F 35.4 °F 32.5 °F 70% 29.99 in 10.0 mi SSW 10.4 mph - N/A   Clear
3:15 AM 41.2 °F 35.0 °F 32.9 °F 72% 30.00 in 10.0 mi SSW 10.4 mph - N/A   Clear
3:35 AM 40.3 °F 34.4 °F 33.4 °F 77% 29.99 in 10.0 mi SSW 9.2 mph 16.1 mph N/A   Clear
3:55 AM 40.1 °F 33.2 °F 33.8 °F 78% 29.98 in 10.0 mi SSW 11.5 mph 16.1 mph N/A   Clear
4:15 AM 40.1 °F 33.6 °F 33.8 °F 78% 29.97 in 10.0 mi SSW 10.4 mph 16.1 mph N/A   Clear
4:35 AM 40.1 °F 33.6 °F 34.0 °F 79% 29.97 in 10.0 mi SSW 10.4 mph - N/A   Clear
4:55 AM 40.1 °F 33.6 °F 34.0 °F 79% 29.97 in 10.0 mi SSW 10.4 mph - N/A   Clear
5:15 AM 39.6 °F 33.0 °F 34.2 °F 81% 29.97 in 10.0 mi SSW 10.4 mph - N/A   Clear
5:35 AM 39.6 °F 33.0 °F 34.7 °F 83% 29.97 in 10.0 mi SSW 10.4 mph - N/A   Clear
5:55 AM 39.6 °F 33.5 °F 34.7 °F 83% 29.97 in 10.0 mi SSW 9.2 mph - N/A   Clear
6:15 AM 39.6 °F 33.5 °F 34.7 °F 83% 29.97 in 10.0 mi SSW 9.2 mph - N/A   Clear
6:35 AM 39.2 °F 33.0 °F 34.9 °F 84% 29.97 in 10.0 mi SSW 9.2 mph - N/A   Clear
6:55 AM 38.8 °F 32.6 °F 35.1 °F 86% 29.97 in 10.0 mi SSW 9.2 mph - N/A   Clear
7:15 AM 38.5 °F 32.7 °F 35.2 °F 88% 29.97 in 10.0 mi SSW 8.1 mph - N/A   Clear
7:35 AM 37.6 °F 31.6 °F 35.6 °F 93% 29.96 in 10.0 mi South 8.1 mph - N/A   Clear
7:55 AM 37.4 °F 30.8 °F 35.8 °F 94% 29.96 in 10.0 mi South 9.2 mph - N/A   Clear
8:15 AM 38.1 °F 32.3 °F 36.0 °F 92% 29.96 in 10.0 mi South 8.1 mph - N/A   Clear
8:35 AM 39.4 °F 33.2 °F 36.0 °F 88% 29.96 in 10.0 mi South 9.2 mph - N/A   Clear
8:55 AM 41.5 °F 35.4 °F 35.8 °F 80% 29.97 in 10.0 mi SSW 10.4 mph 17.3 mph N/A   Clear
9:15 AM 43.7 °F 38.1 °F 35.4 °F 73% 29.97 in 10.0 mi SSW 10.4 mph - N/A   Clear
9:35 AM 45.0 °F 38.9 °F 35.8 °F 70% 29.96 in 10.0 mi SSW 12.7 mph 16.1 mph N/A   Clear
9:55 AM 46.6 °F - 36.0 °F 67% 29.96 in 10.0 mi SW 10.4 mph - N/A   Clear
10:15 AM 48.4 °F - 36.0 °F 62% 29.96 in 10.0 mi SW 13.8 mph 17.3 mph N/A   Clear
10:35 AM 49.8 °F - 36.1 °F 59% 29.96 in 10.0 mi WSW 12.7 mph 19.6 mph N/A   Clear
10:55 AM 51.1 °F - 36.5 °F 57% 29.96 in 10.0 mi SW 10.4 mph - N/A   Clear
11:15 AM 52.7 °F - 36.7 °F 55% 29.96 in 10.0 mi SW 12.7 mph - N/A   Clear
11:35 AM 54.0 °F - 37.0 °F 53% 29.96 in 10.0 mi WSW 13.8 mph 17.3 mph N/A   Clear
11:55 AM 54.5 °F - 36.7 °F 51% 29.95 in 10.0 mi SW 12.7 mph 18.4 mph N/A   Clear
12:15 PM 55.9 °F - 37.4 °F 50% 29.95 in 10.0 mi WSW 11.5 mph 17.3 mph N/A   Clear
12:35 PM 56.1 °F - 36.9 °F 48% 29.95 in 10.0 mi SW 13.8 mph 21.9 mph N/A   Clear
12:55 PM 57.4 °F - 37.2 °F 47% 29.94 in 10.0 mi SW 15.0 mph 20.7 mph N/A   Clear
1:15 PM 57.7 °F - 37.4 °F 47% 29.94 in 10.0 mi SW 12.7 mph - N/A   Clear
1:35 PM 58.5 °F - 37.8 °F 46% 29.93 in 10.0 mi SW 15.0 mph 19.6 mph N/A   Clear
1:55 PM 59.5 °F - 37.9 °F 45% 29.92 in 10.0 mi WSW 11.5 mph - N/A   Clear
2:15 PM 60.3 °F - 37.6 °F 43% 29.91 in 10.0 mi WSW 13.8 mph 18.4 mph N/A   Clear
2:35 PM 61.0 °F - 37.6 °F 42% 29.90 in 10.0 mi SW 13.8 mph 18.4 mph N/A   Clear
2:55 PM 61.9 °F - 37.4 °F 40% 29.89 in 10.0 mi SW 10.4 mph 23.0 mph N/A   Clear
3:15 PM 62.8 °F - 37.6 °F 39% 29.89 in 10.0 mi SSW 13.8 mph 20.7 mph N/A   Clear
3:35 PM 63.3 °F - 36.9 °F 37% 29.89 in 10.0 mi SW 17.3 mph 23.0 mph N/A   Clear
3:55 PM 63.3 °F - 37.0 °F 38% 29.88 in 10.0 mi SW 12.7 mph 19.6 mph N/A   Clear
4:15 PM 63.5 °F - 37.0 °F 38% 29.87 in 10.0 mi SSW 17.3 mph 21.9 mph N/A   Clear
4:35 PM 63.5 °F - 36.9 °F 37% 29.87 in 10.0 mi SW 12.7 mph 21.9 mph N/A   Clear
4:55 PM 63.7 °F - 36.7 °F 37% 29.87 in 10.0 mi WSW 16.1 mph 24.2 mph N/A   Clear
5:15 PM 63.5 °F - 37.4 °F 38% 29.87 in 10.0 mi SW 15.0 mph 18.4 mph N/A   Clear
5:35 PM 63.3 °F - 37.2 °F 38% 29.87 in 10.0 mi SSW 13.8 mph 24.2 mph N/A   Clear
5:55 PM 62.6 °F - 37.0 °F 39% 29.86 in 10.0 mi SW 11.5 mph - N/A   Clear
6:15 PM 61.7 °F - 37.2 °F 40% 29.88 in 10.0 mi SW 11.5 mph 16.1 mph N/A   Clear
6:35 PM 60.6 °F - 37.0 °F 42% 29.88 in 10.0 mi SW 12.7 mph 17.3 mph N/A   Clear
6:55 PM 59.2 °F - 37.2 °F 44% 29.88 in 10.0 mi SW 11.5 mph 17.3 mph N/A   Clear
7:15 PM 56.1 °F - 38.1 °F 51% 29.88 in 10.0 mi SW 6.9 mph - N/A   Clear
7:35 PM 54.0 °F - 38.5 °F 56% 29.89 in 10.0 mi WSW 5.8 mph - N/A   Clear
7:55 PM 51.8 °F - 39.4 °F 63% 29.89 in 10.0 mi SW 6.9 mph - N/A   Clear
8:15 PM 50.9 °F - 39.6 °F 65% 29.90 in 10.0 mi SW 6.9 mph - N/A   Clear
8:35 PM 50.5 °F - 39.6 °F 66% 29.90 in 10.0 mi SW 6.9 mph - N/A   Clear
8:55 PM 49.6 °F - 39.7 °F 69% 29.91 in 10.0 mi SW 5.8 mph - N/A   Clear
9:15 PM 49.1 °F - 39.7 °F 70% 29.91 in 10.0 mi SW 6.9 mph - N/A   Clear
9:35 PM 48.7 °F - 39.7 °F 71% 29.92 in 10.0 mi SW 6.9 mph - N/A   Clear
9:55 PM 48.4 °F - 39.7 °F 72% 29.92 in 10.0 mi SW 6.9 mph - N/A   Clear
10:15 PM 48.4 °F - 39.7 °F 72% 29.93 in 10.0 mi WSW 6.9 mph - N/A   Clear
10:35 PM 49.1 °F - 40.1 °F 71% 29.93 in 10.0 mi WSW 8.1 mph - N/A   Clear
10:55 PM 48.7 °F - 39.9 °F 72% 29.94 in 10.0 mi SW 8.1 mph - N/A   Clear
11:15 PM 48.7 °F - 40.1 °F 72% 29.94 in 10.0 mi WSW 6.9 mph - N/A   Clear
11:35 PM 48.9 °F - 40.1 °F 72% 29.95 in 10.0 mi West 6.9 mph - N/A   Clear
11:55 PM 47.5 °F - 39.9 °F 75% 29.96 in 10.0 mi West 5.8 mph - N/A   Clear